FW1030 Weather Reports


Display with metric or nautical units.
time (UTC)temp
F
wind
direction
speed
MPH
gust
MPH
rain 1hr
in
rain 24hr
in
rain mn
in
humidity
%
barometer
mb
20191212051613 77 355 0.0 0.0 0.00 0.00 0.00 87 1020.9
20191212050143 77 344 0.0 0.0 0.00 0.00 0.00 88 1021.0
20191212044604 77 348 0.0 0.0 0.00 0.00 0.00 88 1021.2
20191212043156 77 335 0.0 0.0 0.00 0.00 0.00 89 1021.4
20191212041624 77 341 0.0 0.0 0.00 0.00 0.00 88 1021.4
20191212040132 77 317 0.0 0.0 0.00 0.00 0.00 89 1021.5
20191212034600 77 335 0.0 0.0 0.00 0.00 0.00 89 1021.6
20191212033145 77 324 0.0 0.0 0.00 0.00 0.00 89 1021.6
20191212031637 77 320 0.0 0.0 0.00 0.00 0.00 89 1021.6
20191212030123 77 317 0.0 0.0 0.00 0.00 0.00 88 1021.5
20191212024537 77 344 0.0 0.0 0.00 0.00 0.00 88 1021.6
20191212023104 77 349 0.0 0.0 0.00 0.00 0.00 88 1021.5
20191212021627 77 346 0.0 0.0 0.00 0.00 0.00 88 1021.6
20191212020120 77 355 0.0 0.0 0.00 0.00 0.00 88 1021.5
20191212014535 77 341 0.0 0.0 0.00 0.00 0.00 88 1021.3
20191212013119 78 9 0.0 0.0 0.00 0.00 0.00 88 1021.1
20191212011558 77 5 0.0 0.0 0.00 0.00 0.00 89 1020.9
20191212010028 77 328 0.0 0.0 0.00 0.00 0.00 89 1020.8
20191212004529 77 348 0.0 0.0 0.00 0.00 0.00 89 1020.8
20191212003055 77 11 0.0 0.0 0.00 0.00 0.00 89 1020.6
20191212001627 77 336 0.0 0.0 0.00 0.00 0.00 89 1020.5
20191212000114 77 315 0.0 0.0 0.00 0.00 0.00 88 1020.4
20191211234532 78 308 0.0 0.0 0.00 0.00 0.00 88 1020.4
20191211233038 78 304 0.0 0.0 0.00 0.00 0.00 88 1020.2
20191211231540 78 355 0.0 0.0 0.00 0.00 0.00 87 1020.1
20191211230034 78 349 0.0 0.0 0.00 0.00 0.00 87 1019.9
20191211224547 78 14 0.0 0.0 0.00 0.00 0.00 86 1019.9
20191211223013 79 31 0.0 0.0 0.00 0.00 0.00 86 1019.8
20191211221549 79 11 0.0 0.0 0.00 0.00 0.00 85 1019.8
20191211220013 79 5 0.0 0.0 0.00 0.00 0.00 84 1019.9
20191211214511 79 20 0.0 0.0 0.00 0.00 0.00 83 1020.0
20191211213049 80 355 0.0 0.0 0.00 0.00 0.00 83 1019.9
20191211211600 80 29 0.0 0.0 0.00 0.00 0.00 83 1019.9
20191211210033 80 12 0.0 0.0 0.00 0.00 0.00 83 1019.6
20191211204546 81 40 0.0 0.0 0.00 0.00 0.00 82 1019.5
20191211203022 80 25 0.0 0.0 0.00 0.00 0.00 83 1019.5
20191211201518 81 37 0.0 0.0 0.00 0.00 0.00 82 1019.4
20191211200007 81 40 0.0 0.0 0.00 0.00 0.00 82 1019.6
20191211194537 81 53 0.0 0.0 0.00 0.00 0.00 82 1019.5
20191211193008 80 24 0.0 0.0 0.00 0.00 0.00 82 1019.6
20191211191503 81 50 0.0 0.0 0.00 0.00 0.00 82 1019.6
20191211190005 81 22 0.0 0.0 0.00 0.00 0.00 80 1019.8
20191211183302 81 47 0.0 0.0 0.00 0.00 0.00 82 1019.8
20191211181733 81 28 0.0 0.0 0.00 0.00 0.00 82 1020.0
20191211180356 80 13 0.0 0.0 0.00 0.00 0.00 83 1020.1
20191211174700 80 342 0.0 0.0 0.00 0.00 0.00 82 1020.4
20191211173356 81 52 0.0 0.0 0.00 0.00 0.00 82 1020.8
20191211171824 81 26 0.0 0.0 0.00 0.00 0.00 82 1021.1
20191211170219 81 71 0.0 0.0 0.00 0.00 0.00 82 1021.3
20191211164800 80 56 0.0 0.0 0.00 0.00 0.00 82 1021.4
20191211163331 81 30 0.0 0.0 0.00 0.00 0.00 81 1021.6
20191211161749 81 55 0.0 0.0 0.00 0.00 0.00 82 1021.5
20191211160354 81 43 0.0 0.0 0.00 0.00 0.00 82 1021.8
20191211154626 80 26 0.0 0.0 0.00 0.00 0.00 82 1021.9
20191211153155 81 39 0.0 0.0 0.00 0.00 0.00 82 1022.1
20191211151840 80 26 0.0 0.0 0.00 0.00 0.00 83 1022.0
20191211150135 80 61 0.0 0.0 0.00 0.00 0.00 83 1021.9
20191211144702 80 44 0.0 0.0 0.00 0.00 0.00 83 1021.7
20191211143219 80 37 0.0 0.0 0.00 0.00 0.00 84 1021.5
20191211141620 79 47 0.0 0.0 0.00 0.00 0.00 84 1021.3
20191211140207 79 30 0.0 0.0 0.00 0.00 0.00 84 1021.3
20191211134750 79 355 0.0 0.0 0.00 0.00 0.00 85 1021.2
20191211133112 79 58 0.0 0.0 0.00 0.00 0.00 86 1021.1
20191211131726 78 19 0.0 0.0 0.00 0.00 0.00 86 1021.1
20191211130138 78 74 0.0 0.0 0.00 0.00 0.00 86 1020.9
20191211124626 78 28 0.0 0.0 0.00 0.00 0.00 87 1020.7
20191211123053 77 78 0.0 0.0 0.00 0.00 0.00 87 1020.5
20191211121548 77 58 0.0 0.0 0.00 0.00 0.00 87 1020.3
20191211120030 77 57 0.0 0.0 0.00 0.00 0.00 87 1020.1
20191211114626 77 69 0.0 0.0 0.00 0.00 0.00 88 1019.9
20191211113014 77 5 0.0 0.0 0.00 0.00 0.00 88 1019.7
20191211111534 77 36 0.0 0.0 0.00 0.00 0.00 88 1019.7
20191211110024 77 54 0.0 0.0 0.00 0.00 0.00 88 1019.6
20191211104518 77 46 0.0 0.0 0.00 0.00 0.00 88 1019.4
20191211103052 77 30 0.0 0.0 0.00 0.00 0.00 87 1019.2
20191211101534 77 86 0.0 0.0 0.00 0.00 0.00 87 1019.2
20191211100019 77 53 0.0 0.0 0.00 0.00 0.00 88 1019.2
20191211094528 77 59 0.0 0.0 0.00 0.00 0.00 88 1019.2
20191211093011 77 64 0.0 0.0 0.00 0.00 0.00 88 1019.1
20191211091512 77 62 0.0 0.0 0.00 0.00 0.00 88 1019.1
20191211090003 77 33 0.0 0.0 0.00 0.00 0.00 89 1019.0
20191211084501 77 55 0.0 0.0 0.00 0.00 0.00 89 1018.9
20191211083401 77 58 0.0 0.0 0.00 0.00 0.00 89 1019.0
20191211081823 77 77 0.0 0.0 0.00 0.00 0.00 89 1018.9
20191211080305 77 24 0.0 0.0 0.00 0.00 0.00 89 1018.8
20191211074951 77 30 0.0 0.0 0.00 0.00 0.00 89 1018.8
20191211073203 77 40 0.0 0.0 0.00 0.00 0.00 88 1019.0
20191211071726 77 31 0.0 0.0 0.00 0.00 0.00 88 1018.9
20191211070217 77 63 0.0 0.0 0.00 0.00 0.00 88 1019.0
20191211064857 77 61 0.0 0.0 0.00 0.00 0.00 88 1019.1
20191211063340 77 45 0.0 0.0 0.00 0.00 0.00 88 1019.2
20191211061700 77 5 0.0 0.0 0.00 0.00 0.00 88 1019.3
20191211060257 77 355 0.0 0.0 0.00 0.00 0.00 89 1019.3